BVG006 EGLF-EGBK

Flight info

Callsign BVG006
Flight time 0h 35m
Altitude 8000
Route WOD M605 DTY P166 WELIN
Aircraft M20T/L-SDFGRY/S

Departure

Time 2026-04-29 10:55
Airport Farnborough Airport (EGLF)

Arrival

Time 2026-04-29 11:31
Airport Sywell Aerodrome (EGBK)
Time Latitude Longitude Altitude Speed Heading
2026-04-29 10:03 51.27877 -0.78208 242 ft 0 kts 121°
2026-04-29 10:39 51.27873 -0.78201 242 ft 0 kts 153°
2026-04-29 10:40 51.27868 -0.78200 242 ft 2 kts 195°
2026-04-29 10:40 51.27855 -0.78263 242 ft 8 kts 242°
2026-04-29 10:40 51.27848 -0.78278 242 ft 0 kts 237°
2026-04-29 10:40 51.27844 -0.78288 242 ft 3 kts 237°
2026-04-29 10:41 51.27821 -0.78346 242 ft 11 kts 240°
2026-04-29 10:41 51.27792 -0.78408 242 ft 0 kts 216°
2026-04-29 10:41 51.27776 -0.78422 242 ft 10 kts 193°
2026-04-29 10:41 51.27669 -0.78406 242 ft 12 kts 177°
2026-04-29 10:42 51.27639 -0.78419 242 ft 0 kts 181°
2026-04-29 10:42 51.27625 -0.78439 242 ft 3 kts 268°
2026-04-29 10:42 51.27625 -0.78443 242 ft 0 kts 282°
2026-04-29 10:42 51.27627 -0.78492 242 ft 2 kts 284°
2026-04-29 10:43 51.27627 -0.78493 242 ft 0 kts 291°
2026-04-29 10:43 51.27643 -0.78515 242 ft 0 kts 45°
2026-04-29 10:44 51.27639 -0.78453 242 ft 0 kts 122°
2026-04-29 10:44 51.27626 -0.78433 242 ft 10 kts 144°
2026-04-29 10:44 51.27568 -0.78355 242 ft 2 kts 124°
2026-04-29 10:44 51.27566 -0.78352 242 ft 3 kts 126°
2026-04-29 10:45 51.27552 -0.78324 242 ft 2 kts 138°
2026-04-29 10:45 51.27550 -0.78322 242 ft 0 kts 142°
2026-04-29 10:45 51.27526 -0.78284 242 ft 12 kts 136°
2026-04-29 10:45 51.27441 -0.78152 242 ft 0 kts 136°
2026-04-29 10:46 51.27450 -0.78166 242 ft 2 kts 136°
2026-04-29 10:46 51.27458 -0.78178 242 ft 0 kts 139°
2026-04-29 10:53 51.27449 -0.78165 242 ft 1 kts 128°
2026-04-29 10:53 51.27447 -0.78161 242 ft 2 kts 127°
2026-04-29 10:53 51.27438 -0.78123 242 ft 1 kts 34°
2026-04-29 10:53 51.27441 -0.78118 242 ft 0 kts 53°
2026-04-29 10:54 51.27461 -0.78075 242 ft 19 kts 54°
2026-04-29 10:54 51.27579 -0.77672 242 ft 61 kts 61°
2026-04-29 10:54 51.27831 -0.76948 341 ft 80 kts 61°
2026-04-29 10:55 51.28119 -0.76138 541 ft 86 kts 56°
2026-04-29 10:55 51.28666 -0.75790 711 ft 94 kts 345°
2026-04-29 10:55 51.29188 -0.76436 919 ft 100 kts 315°
2026-04-29 10:55 51.29711 -0.77243 1107 ft 109 kts 316°
2026-04-29 10:56 51.30289 -0.78107 1287 ft 118 kts 317°
2026-04-29 10:56 51.30925 -0.79004 1456 ft 120 kts 321°
2026-04-29 10:56 51.31604 -0.79738 1600 ft 117 kts 330°
2026-04-29 10:56 51.32321 -0.80327 1746 ft 115 kts 335°
2026-04-29 10:57 51.33052 -0.80829 1890 ft 113 kts 338°
2026-04-29 10:57 51.33782 -0.81283 2035 ft 111 kts 339°
2026-04-29 10:57 51.34502 -0.81711 2179 ft 110 kts 340°
2026-04-29 10:57 51.35210 -0.82121 2322 ft 109 kts 340°
2026-04-29 10:58 51.35920 -0.82529 2468 ft 108 kts 340°
2026-04-29 10:58 51.36630 -0.82936 2615 ft 107 kts 340°
2026-04-29 10:58 51.37324 -0.83333 2761 ft 106 kts 340°
2026-04-29 10:58 51.38011 -0.83725 2906 ft 105 kts 340°
2026-04-29 10:59 51.38698 -0.84117 3053 ft 104 kts 340°
2026-04-29 10:59 51.39377 -0.84505 3200 ft 103 kts 340°
2026-04-29 10:59 51.40046 -0.84887 3345 ft 103 kts 340°
2026-04-29 10:59 51.40718 -0.85271 3492 ft 102 kts 340°
2026-04-29 11:00 51.41356 -0.85636 3635 ft 101 kts 340°
2026-04-29 11:00 51.42024 -0.86018 3786 ft 100 kts 340°
2026-04-29 11:00 51.42669 -0.86387 3934 ft 99 kts 340°
2026-04-29 11:00 51.43322 -0.86761 4085 ft 98 kts 340°
2026-04-29 11:01 51.43954 -0.87122 4233 ft 97 kts 340°
2026-04-29 11:01 51.44595 -0.87489 4384 ft 96 kts 340°
2026-04-29 11:01 51.45223 -0.87817 4532 ft 95 kts 345°
2026-04-29 11:01 51.45831 -0.88040 4674 ft 94 kts 346°
2026-04-29 11:02 51.46476 -0.88255 4823 ft 94 kts 346°
2026-04-29 11:02 51.47110 -0.88460 4971 ft 93 kts 346°
2026-04-29 11:02 51.47732 -0.88659 5115 ft 91 kts 345°
2026-04-29 11:02 51.48348 -0.88856 5258 ft 89 kts 345°
2026-04-29 11:03 51.48952 -0.89048 5412 ft 86 kts 343°
2026-04-29 11:03 51.49502 -0.89220 5606 ft 76 kts 342°
2026-04-29 11:03 51.49989 -0.89374 5765 ft 69 kts 340°
2026-04-29 11:03 51.50479 -0.89535 5833 ft 73 kts 340°
2026-04-29 11:04 51.50994 -0.89700 5918 ft 76 kts 340°
2026-04-29 11:04 51.51522 -0.89869 6004 ft 80 kts 340°
2026-04-29 11:04 51.52099 -0.90057 6039 ft 90 kts 340°
2026-04-29 11:04 51.52756 -0.90270 6041 ft 103 kts 341°
2026-04-29 11:05 51.53505 -0.90510 6029 ft 115 kts 342°
2026-04-29 11:05 51.54311 -0.90767 6018 ft 123 kts 342°
2026-04-29 11:05 51.55174 -0.91040 6011 ft 129 kts 343°
2026-04-29 11:05 51.56082 -0.91327 6007 ft 134 kts 343°
2026-04-29 11:06 51.56985 -0.91613 6005 ft 137 kts 343°
2026-04-29 11:06 51.57933 -0.91916 6004 ft 139 kts 343°
2026-04-29 11:06 51.58902 -0.92226 6003 ft 141 kts 343°
2026-04-29 11:06 51.59888 -0.92541 6002 ft 143 kts 343°
2026-04-29 11:07 51.60851 -0.92849 6002 ft 144 kts 343°
2026-04-29 11:07 51.61836 -0.93164 6001 ft 145 kts 343°
2026-04-29 11:07 51.62833 -0.93483 6001 ft 145 kts 343°
2026-04-29 11:07 51.63825 -0.93800 6001 ft 146 kts 343°
2026-04-29 11:08 51.64812 -0.94116 6000 ft 146 kts 343°
2026-04-29 11:08 51.65809 -0.94436 6000 ft 146 kts 343°
2026-04-29 11:08 51.66803 -0.94754 6000 ft 146 kts 343°
2026-04-29 11:08 51.67810 -0.95077 6000 ft 146 kts 343°
2026-04-29 11:09 51.68799 -0.95393 6004 ft 145 kts 343°
2026-04-29 11:09 51.69785 -0.95709 5974 ft 145 kts 343°
2026-04-29 11:09 51.70776 -0.96029 5994 ft 144 kts 343°
2026-04-29 11:09 51.71759 -0.96345 5999 ft 144 kts 343°
2026-04-29 11:10 51.72743 -0.96662 6000 ft 145 kts 343°
2026-04-29 11:10 51.73738 -0.96982 6001 ft 145 kts 343°
2026-04-29 11:10 51.74725 -0.97300 6000 ft 146 kts 343°
2026-04-29 11:10 51.75727 -0.97623 6000 ft 146 kts 343°
2026-04-29 11:11 51.76715 -0.97941 6000 ft 146 kts 343°
2026-04-29 11:11 51.77717 -0.98263 6000 ft 146 kts 343°
2026-04-29 11:11 51.78706 -0.98582 6000 ft 146 kts 343°
2026-04-29 11:11 51.79707 -0.98905 6000 ft 146 kts 343°
2026-04-29 11:12 51.80702 -0.99226 6000 ft 146 kts 343°
2026-04-29 11:12 51.81707 -0.99551 6000 ft 146 kts 343°
2026-04-29 11:12 51.82703 -0.99873 6000 ft 147 kts 343°
2026-04-29 11:12 51.83710 -1.00198 6000 ft 147 kts 343°
2026-04-29 11:13 51.84710 -1.00522 6000 ft 147 kts 343°
2026-04-29 11:13 51.85703 -1.00842 6000 ft 147 kts 343°
2026-04-29 11:13 51.86709 -1.01167 6000 ft 147 kts 343°
2026-04-29 11:13 51.87699 -1.01488 6000 ft 147 kts 343°
2026-04-29 11:14 51.88698 -1.01811 6000 ft 146 kts 343°
2026-04-29 11:14 51.89703 -1.02137 6000 ft 146 kts 343°
2026-04-29 11:14 51.90702 -1.02460 6000 ft 146 kts 343°
2026-04-29 11:14 51.91709 -1.02787 6000 ft 146 kts 343°
2026-04-29 11:15 51.92705 -1.03110 6000 ft 146 kts 343°
2026-04-29 11:15 51.93699 -1.03433 6000 ft 146 kts 343°
2026-04-29 11:15 51.94702 -1.03759 6000 ft 146 kts 343°
2026-04-29 11:15 51.95701 -1.04084 6000 ft 146 kts 343°
2026-04-29 11:16 51.96704 -1.04410 6000 ft 146 kts 343°
2026-04-29 11:16 51.97696 -1.04733 6000 ft 146 kts 343°
2026-04-29 11:16 51.98692 -1.05058 6000 ft 146 kts 343°
2026-04-29 11:16 51.99694 -1.05383 6000 ft 146 kts 343°
2026-04-29 11:17 52.00698 -1.05709 6000 ft 146 kts 343°
2026-04-29 11:17 52.01699 -1.06035 6000 ft 146 kts 343°
2026-04-29 11:17 52.02696 -1.06360 6000 ft 146 kts 343°
2026-04-29 11:17 52.03684 -1.06682 6000 ft 146 kts 343°
2026-04-29 11:18 52.04694 -1.07011 6000 ft 147 kts 343°
2026-04-29 11:18 52.05689 -1.07336 6000 ft 147 kts 343°
2026-04-29 11:18 52.06695 -1.07664 6000 ft 147 kts 343°
2026-04-29 11:18 52.07696 -1.07992 6000 ft 147 kts 343°
2026-04-29 11:19 52.08687 -1.08316 6000 ft 147 kts 343°
2026-04-29 11:19 52.09687 -1.08642 6000 ft 147 kts 343°
2026-04-29 11:19 52.10689 -1.08970 6000 ft 147 kts 343°
2026-04-29 11:19 52.11688 -1.09297 6000 ft 147 kts 343°
2026-04-29 11:20 52.12694 -1.09627 6000 ft 147 kts 343°
2026-04-29 11:20 52.13688 -1.09953 6000 ft 147 kts 343°
2026-04-29 11:20 52.14690 -1.10282 6000 ft 147 kts 343°
2026-04-29 11:20 52.15686 -1.10609 6000 ft 147 kts 343°
2026-04-29 11:21 52.16689 -1.10939 6000 ft 147 kts 343°
2026-04-29 11:21 52.17699 -1.11138 5993 ft 151 kts
2026-04-29 11:21 52.18618 -1.10233 5997 ft 162 kts 48°
2026-04-29 11:21 52.19101 -1.08527 5917 ft 171 kts 68°
2026-04-29 11:22 52.19470 -1.06649 5790 ft 177 kts 69°
2026-04-29 11:22 52.19866 -1.04717 5659 ft 180 kts 67°
2026-04-29 11:22 52.20299 -1.02786 5526 ft 182 kts 66°
2026-04-29 11:22 52.20756 -1.00867 5386 ft 183 kts 65°
2026-04-29 11:23 52.21243 -0.98902 5119 ft 190 kts 65°
2026-04-29 11:23 52.21755 -0.96875 4846 ft 193 kts 65°
2026-04-29 11:23 52.22266 -0.94869 4575 ft 195 kts 65°
2026-04-29 11:23 52.22791 -0.92816 4253 ft 197 kts 66°
2026-04-29 11:24 52.23318 -0.90758 3929 ft 197 kts 66°
2026-04-29 11:24 52.23851 -0.88677 3602 ft 197 kts 67°
2026-04-29 11:24 52.24429 -0.86662 3276 ft 197 kts 58°
2026-04-29 11:24 52.25302 -0.84942 2954 ft 197 kts 44°
2026-04-29 11:25 52.26351 -0.83513 2630 ft 196 kts 36°
2026-04-29 11:25 52.27476 -0.82269 2306 ft 196 kts 32°
2026-04-29 11:25 52.28758 -0.81649 1974 ft 195 kts 359°
2026-04-29 11:25 52.30009 -0.82372 1651 ft 194 kts 323°
2026-04-29 11:26 52.30666 -0.86292 1149 ft 184 kts 247°
2026-04-29 11:26 52.30252 -0.87455 1194 ft 172 kts 235°
2026-04-29 11:26 52.29302 -0.89440 1195 ft 161 kts 230°
2026-04-29 11:27 52.28605 -0.90806 1194 ft 156 kts 230°
2026-04-29 11:27 52.28060 -0.91556 1188 ft 153 kts 207°
2026-04-29 11:27 52.27038 -0.91675 1083 ft 155 kts 162°
2026-04-29 11:27 52.26126 -0.90719 1017 ft 153 kts 139°
2026-04-29 11:28 52.25200 -0.89062 1013 ft 146 kts 127°
2026-04-29 11:28 52.24832 -0.88148 1005 ft 145 kts 120°
2026-04-29 11:28 52.24508 -0.86600 997 ft 144 kts 95°
2026-04-29 11:28 52.24819 -0.85121 1028 ft 136 kts 49°
2026-04-29 11:29 52.25513 -0.84205 1015 ft 124 kts 34°
2026-04-29 11:29 52.26251 -0.83456 851 ft 127 kts 31°
2026-04-29 11:29 52.27017 -0.82712 689 ft 127 kts 31°
2026-04-29 11:29 52.27746 -0.82007 544 ft 117 kts 31°
2026-04-29 11:30 52.28417 -0.81356 482 ft 107 kts 31°
2026-04-29 11:30 52.29028 -0.80763 473 ft 97 kts 31°
2026-04-29 11:30 52.29576 -0.80230 463 ft 81 kts 31°
2026-04-29 11:30 52.29986 -0.79832 411 ft 54 kts 31°
2026-04-29 11:31 52.30221 -0.79601 423 ft 27 kts 31°
2026-04-29 11:31 52.30316 -0.79510 423 ft 5 kts 29°
2026-04-29 11:31 52.30319 -0.79507 423 ft 0 kts 29°